TimePDT,TemperatureF,Dew PointF,Humidity,Sea Level PressureIn,VisibilityMPH,Wind Direction,Wind SpeedMPH,Gust SpeedMPH,PrecipitationIn,Events,Conditions,WindDirDegrees,DateUTC
12:15 AM,44.6,14.0,29,30.09,10.0,East,5.8,-,N/A,,Clear,100,2013-06-20 07:15:00
12:35 AM,44.6,17.6,34,30.09,10.0,Calm,Calm,-,N/A,,Clear,0,2013-06-20 07:35:00
12:55 AM,41.0,17.6,39,30.09,10.0,Calm,Calm,-,N/A,,Clear,0,2013-06-20 07:55:00
1:15 AM,41.0,14.0,33,30.10,10.0,SW,9.2,-,N/A,,Clear,220,2013-06-20 08:15:00
1:35 AM,44.6,17.6,34,30.09,10.0,West,10.4,-,N/A,,Clear,270,2013-06-20 08:35:00
1:55 AM,42.8,14.0,31,30.09,10.0,WSW,5.8,-,N/A,,Clear,240,2013-06-20 08:55:00
2:15 AM,41.0,14.0,33,30.08,10.0,West,8.1,-,N/A,,Clear,280,2013-06-20 09:15:00
2:35 AM,41.0,14.0,33,30.08,10.0,West,8.1,-,N/A,,Clear,270,2013-06-20 09:35:00
2:55 AM,42.8,14.0,31,30.08,10.0,West,6.9,-,N/A,,Clear,270,2013-06-20 09:55:00
3:15 AM,41.0,14.0,33,30.08,10.0,WNW,8.1,-,N/A,,Clear,290,2013-06-20 10:15:00
3:35 AM,41.0,15.8,36,30.08,10.0,West,9.2,-,N/A,,Clear,270,2013-06-20 10:35:00
3:55 AM,42.8,15.8,34,30.08,10.0,West,11.5,-,N/A,,Clear,270,2013-06-20 10:55:00
4:15 AM,41.0,15.8,36,30.07,10.0,West,9.2,-,N/A,,Clear,270,2013-06-20 11:15:00
4:35 AM,39.2,15.8,39,30.07,10.0,West,6.9,-,N/A,,Clear,280,2013-06-20 11:35:00
4:55 AM,39.2,17.6,42,30.07,10.0,WNW,6.9,-,N/A,,Clear,290,2013-06-20 11:55:00
5:15 AM,39.2,17.6,42,30.07,10.0,WNW,6.9,-,N/A,,Clear,290,2013-06-20 12:15:00
5:35 AM,37.4,17.6,45,30.08,10.0,NW,4.6,-,N/A,,Clear,310,2013-06-20 12:35:00
5:55 AM,37.4,15.8,41,30.08,10.0,Calm,Calm,-,N/A,,Clear,0,2013-06-20 12:55:00
6:15 AM,37.4,15.8,41,30.09,10.0,WNW,5.8,-,N/A,,Clear,290,2013-06-20 13:15:00
6:35 AM,42.8,17.6,36,30.09,10.0,West,9.2,-,N/A,,Clear,270,2013-06-20 13:35:00
6:55 AM,46.4,19.4,34,30.10,10.0,West,9.2,-,N/A,,Clear,280,2013-06-20 13:55:00
7:15 AM,46.4,19.4,34,30.10,10.0,West,12.7,-,N/A,,Clear,280,2013-06-20 14:15:00
7:35 AM,50.0,19.4,30,30.10,10.0,WNW,8.1,-,N/A,,Clear,300,2013-06-20 14:35:00
7:55 AM,51.8,19.4,28,30.10,10.0,NW,5.8,-,N/A,,Clear,320,2013-06-20 14:55:00
8:15 AM,53.6,17.6,24,30.09,10.0,WNW,5.8,-,N/A,,Clear,290,2013-06-20 15:15:00
8:35 AM,55.4,17.6,23,30.09,10.0,Calm,Calm,-,N/A,,Clear,0,2013-06-20 15:35:00
8:55 AM,57.2,17.6,21,30.09,10.0,East,5.8,-,N/A,,Clear,100,2013-06-20 15:55:00
9:15 AM,57.2,17.6,21,30.09,10.0,SE,4.6,-,N/A,,Clear,140,2013-06-20 16:15:00
9:35 AM,59.0,19.4,22,30.08,10.0,ESE,3.5,-,N/A,,Clear,120,2013-06-20 16:35:00
9:55 AM,60.8,19.4,20,30.08,10.0,ESE,5.8,-,N/A,,Clear,110,2013-06-20 16:55:00
10:15 AM,62.6,19.4,19,30.08,10.0,ESE,6.9,-,N/A,,Clear,120,2013-06-20 17:15:00
10:35 AM,62.6,15.8,16,30.08,10.0,ESE,8.1,-,N/A,,Clear,110,2013-06-20 17:35:00
10:55 AM,64.4,10.4,12,30.07,10.0,East,5.8,16.1,N/A,,Clear,100,2013-06-20 17:55:00
11:15 AM,66.2,8.6,11,30.08,10.0,East,9.2,-,N/A,,Clear,100,2013-06-20 18:15:00
11:35 AM,66.2,10.4,11,30.07,10.0,East,6.9,-,N/A,,Clear,100,2013-06-20 18:35:00
11:55 AM,68.0,10.4,11,30.07,10.0,East,5.8,-,N/A,,Clear,100,2013-06-20 18:55:00
12:15 PM,68.0,8.6,10,30.07,10.0,Calm,Calm,-,N/A,,Clear,0,2013-06-20 19:15:00
12:35 PM,71.6,10.4,9,30.06,10.0,NW,16.1,26.5,N/A,,Clear,310,2013-06-20 19:35:00
12:55 PM,71.6,8.6,9,30.06,10.0,WNW,17.3,27.6,N/A,,Clear,300,2013-06-20 19:55:00
1:15 PM,71.6,10.4,9,30.06,10.0,NW,20.7,31.1,N/A,,Clear,310,2013-06-20 20:15:00
1:35 PM,71.6,10.4,9,30.06,10.0,WNW,23.0,29.9,N/A,,Clear,290,2013-06-20 20:35:00
1:55 PM,71.6,12.2,10,30.05,10.0,NW,18.4,25.3,N/A,,Clear,310,2013-06-20 20:55:00
2:15 PM,71.6,12.2,10,30.06,10.0,NW,21.9,29.9,N/A,,Clear,310,2013-06-20 21:15:00
2:35 PM,71.6,14.0,11,30.06,10.0,WNW,23.0,32.2,N/A,,Clear,300,2013-06-20 21:35:00
2:55 PM,71.6,15.8,12,30.06,10.0,NW,24.2,31.1,N/A,,Clear,310,2013-06-20 21:55:00
3:15 PM,71.6,15.8,12,30.06,10.0,WNW,20.7,31.1,N/A,,Clear,300,2013-06-20 22:15:00
3:35 PM,71.6,15.8,12,30.06,10.0,WNW,21.9,31.1,N/A,,Clear,300,2013-06-20 22:35:00
3:55 PM,71.6,17.6,13,30.06,10.0,NW,19.6,31.1,N/A,,Clear,310,2013-06-20 22:55:00
4:15 PM,71.6,19.4,14,30.07,10.0,WNW,20.7,28.8,N/A,,Clear,290,2013-06-20 23:15:00
4:35 PM,69.8,19.4,15,30.07,10.0,WNW,20.7,31.1,N/A,,Clear,290,2013-06-20 23:35:00
4:55 PM,69.8,19.4,15,30.07,10.0,WNW,20.7,27.6,N/A,,Clear,290,2013-06-20 23:55:00
5:15 PM,69.8,19.4,15,30.07,10.0,WNW,21.9,31.1,N/A,,Clear,290,2013-06-21 00:15:00
5:35 PM,68.0,23.0,18,30.07,10.0,WNW,21.9,28.8,N/A,,Clear,300,2013-06-21 00:35:00
5:55 PM,68.0,26.6,21,30.07,10.0,WNW,23.0,31.1,N/A,,Clear,300,2013-06-21 00:55:00
6:15 PM,66.2,26.6,23,30.07,10.0,WNW,19.6,31.1,N/A,,Clear,300,2013-06-21 01:15:00
6:35 PM,64.4,28.4,26,30.07,10.0,WNW,23.0,27.6,N/A,,Clear,300,2013-06-21 01:35:00
6:55 PM,62.6,28.4,27,30.08,10.0,WNW,21.9,28.8,N/A,,Clear,300,2013-06-21 01:55:00
7:15 PM,62.6,28.4,27,30.08,10.0,WNW,20.7,33.4,N/A,,Clear,290,2013-06-21 02:15:00
7:35 PM,60.8,30.2,31,30.08,10.0,WNW,23.0,32.2,N/A,,Clear,290,2013-06-21 02:35:00
7:55 PM,59.0,30.2,34,30.08,10.0,WNW,16.1,27.6,N/A,,Clear,300,2013-06-21 02:55:00
8:15 PM,57.2,30.2,36,30.09,10.0,WNW,17.3,24.2,N/A,,Clear,290,2013-06-21 03:15:00
8:35 PM,55.4,32.0,41,30.09,10.0,West,11.5,-,N/A,,Clear,270,2013-06-21 03:35:00
8:55 PM,55.4,28.4,36,30.09,10.0,Calm,Calm,-,N/A,,Clear,0,2013-06-21 03:55:00
9:15 PM,51.8,30.2,44,30.10,10.0,WNW,6.9,-,N/A,,Clear,300,2013-06-21 04:15:00
9:35 PM,51.8,30.2,44,30.10,10.0,West,9.2,-,N/A,,Clear,280,2013-06-21 04:35:00
9:55 PM,51.8,30.2,44,30.11,10.0,NW,4.6,-,N/A,,Clear,310,2013-06-21 04:55:00
10:15 PM,50.0,28.4,43,30.11,10.0,Calm,Calm,-,N/A,,Clear,0,2013-06-21 05:15:00
10:35 PM,51.8,28.4,41,30.11,10.0,Calm,Calm,-,N/A,,Clear,0,2013-06-21 05:35:00
10:55 PM,50.0,26.6,40,30.11,10.0,Calm,Calm,-,N/A,,Clear,0,2013-06-21 05:55:00
11:15 PM,48.2,28.4,46,30.12,10.0,South,3.5,-,N/A,,Clear,180,2013-06-21 06:15:00
11:35 PM,46.4,30.2,53,30.11,10.0,ESE,6.9,-,N/A,,Clear,120,2013-06-21 06:35:00
11:55 PM,48.2,32.0,54,30.12,10.0,ESE,5.8,-,N/A,,Clear,120,2013-06-21 06:55:00